User: anonymous   Login
Location: Unspecified
(0.0000°N, 0.0000°E)
Time: 17:11:38
(UTC+00:00)
Language:

Fermi - Orbit

View from above orbital plane
View from above orbital plane
View from above satellite
View from above satellite

Ground track
Ground track

The orbit data is extracted from the following two-line orbital elements,

1 33053U 08029A   20016.52365724 +.00000437 +00000-0 +81909-5 0  9992
2 33053 025.5837 061.7851 0012614 038.6869 321.4569 15.11293168640151
Epoch (UTC): 16 January 2020 12:34:03
Eccentricity: 0.0012614
inclination: 25.5837°
perigee height: 523 km
apogee height: 541 km
right ascension of ascending node: 61.7851°
argument of perigee: 38.6869°
revolutions per day: 15.11293168
mean anomaly at epoch: 321.4569°
orbit number at epoch: 64015

The dashed part of the orbit path shows where the satellite is in the earth's shadow,  

DLR